Terminal Aerodrome Forecast
Issued by NWS Pocatello, ID

Home | Current Version | Previous Version | Text Only | Print | Product List | Glossary On
Versions: 1 2 3 4 5 6 7 8 9 10 11 12 13
000
FTUS45 KPIH 301120
TAFPIH
TAF
KPIH 301120Z 3012/0112 02005KT P6SM SCT250
     FM302100 27010G15KT P6SM VCTS SCT080CB BKN250
     FM010300 23008KT P6SM FEW150 SCT250=

USA.gov is the U.S. government's official web portal to all federal, state and local government web resources and services.